GW7337 Weather Reports


time (UTC)temp
C
wind
direction
speed
KPH
gust
KPH
rain 1hr
cm
rain 24hr
cm
rain mn
cm
humidity
%
barometer
mb
20260505164343 19 107 0.0 0.0 0.00 0.00 0.00 52 1009.6
20260505163841 18 102 1.6 1.6 0.00 0.00 0.00 52 1009.8
20260505163340 18 100 4.8 4.8 0.00 0.00 0.00 50 1009.6
20260505162838 18 99 0.0 1.6 0.00 0.00 0.00 55 1009.8
20260505162333 17 100 1.6 1.6 0.00 0.00 0.00 53 1009.6
20260505161830 17 103 1.6 1.6 0.00 0.00 0.00 54 1009.9
20260505161328 17 104 1.6 1.6 0.00 0.00 0.00 55 1009.8
20260505160825 17 83 0.0 0.0 0.00 0.00 0.00 55 1009.8
20260505160323 16 93 1.6 1.6 0.00 0.00 0.00 56 1009.6
20260505153302 15 131 0.0 0.0 0.00 0.00 0.00 61 1009.8
20260505152759 14 131 0.0 1.6 0.00 0.00 0.00 62 1009.6
20260505152256 13 138 1.6 3.2 0.00 0.00 0.00 66 1009.8
20260505151755 12 135 3.2 3.2 0.00 0.00 0.00 66 1009.8
20260505151253 12 134 1.6 1.6 0.00 0.00 0.00 65 1009.9
20260505150750 13 107 0.0 1.6 0.00 0.00 0.00 65 1009.9
20260505150247 13 114 3.2 3.2 0.00 0.00 0.00 66 1009.8
20260505140217 13 328 1.6 1.6 0.00 0.00 0.00 62 1009.1
20260505130141 11 290 1.6 1.6 0.00 0.00 0.00 63 1008.3
20260505124631 10 290 1.6 1.6 0.00 0.00 0.00 66 1008.3
20260505124127 10 290 3.2 3.2 0.00 0.00 0.00 66 1008.3
20260505123623 10 292 3.2 3.2 0.00 0.00 0.00 67 1008.3
20260505123120 10 295 1.6 1.6 0.00 0.00 0.00 67 1008.3
20260505122617 10 295 3.2 3.2 0.00 0.00 0.00 67 1008.2
20260505122114 10 295 1.6 1.6 0.00 0.00 0.00 67 1008.3
20260505121610 9 297 3.2 3.2 0.00 0.00 0.00 70 1008.2
20260505121107 8 298 1.6 1.6 0.00 0.00 0.00 73 1008.1
20260505120604 8 298 1.6 1.6 0.00 0.00 0.00 72 1008.2
20260505120059 9 299 1.6 1.6 0.00 0.00 0.00 71 1008.1
20260505115554 9 301 3.2 3.2 0.00 0.00 0.00 71 1008.2
20260505115052 9 301 3.2 3.2 0.00 0.00 0.00 71 1008.0
20260505114548 8 306 3.2 3.2 0.00 0.00 0.00 72 1008.1
20260505114045 8 309 3.2 3.2 0.00 0.00 0.00 73 1007.8
20260505113541 8 310 0.0 0.0 0.00 0.00 0.00 73 1008.0
20260505113038 8 310 0.0 0.0 0.00 0.00 0.00 73 1008.1
20260505112534 8 310 0.0 0.0 0.00 0.00 0.00 72 1007.9
20260505112033 8 310 0.0 0.0 0.00 0.00 0.00 73 1007.9
20260505111532 8 310 0.0 0.0 0.00 0.00 0.00 73 1007.9
20260505111028 7 310 3.2 3.2 0.00 0.00 0.00 76 1007.9
20260505110525 8 329 3.2 3.2 0.00 0.00 0.00 75 1007.8
20260505101958 9 308 3.2 3.2 0.00 0.00 0.00 71 1007.7
20260505101455 7 336 3.2 3.2 0.00 0.00 0.00 76 1007.6
20260505100952 7 341 1.6 1.6 0.00 0.00 0.00 77 1007.4
20260505100449 9 340 3.2 4.8 0.00 0.00 0.00 71 1007.5
20260505095945 10 329 1.6 1.6 0.00 0.00 0.00 68 1007.4
20260505095441 11 297 0.0 0.0 0.00 0.00 0.00 64 1007.4
20260505094938 11 297 0.0 0.0 0.00 0.00 0.00 61 1007.4
20260505094435 11 297 1.6 1.6 0.00 0.00 0.00 62 1007.2
20260505093931 11 297 3.2 3.2 0.00 0.00 0.00 62 1007.4
20260505093428 11 297 1.6 1.6 0.00 0.00 0.00 61 1007.3
20260505092925 11 297 1.6 1.6 0.00 0.00 0.00 61 1007.2
20260505092423 11 297 1.6 1.6 0.00 0.00 0.00 62 1007.2
20260505091920 11 297 1.6 1.6 0.00 0.00 0.00 63 1007.2
20260505091418 11 298 3.2 3.2 0.00 0.00 0.00 63 1007.2
20260505090916 11 298 3.2 3.2 0.00 0.00 0.00 64 1007.0
20260505090414 10 299 1.6 1.6 0.00 0.00 0.00 65 1007.0
20260505085911 10 299 0.0 0.0 0.00 0.00 0.00 67 1007.0
20260505085409 10 299 1.6 1.6 0.00 0.00 0.00 68 1007.2
20260505084906 10 300 1.6 1.6 0.00 0.00 0.00 68 1006.9
20260505084404 8 331 3.2 3.2 0.00 0.00 0.00 72 1006.9
20260505083902 8 337 1.6 1.6 0.00 0.00 0.00 77 1007.0
20260505083359 8 337 0.0 0.0 0.00 0.00 0.00 77 1007.0
20260505082855 9 337 1.6 1.6 0.00 0.00 0.00 74 1007.2
20260505082351 8 337 0.0 0.0 0.00 0.00 0.00 75 1006.8
20260505081848 8 337 3.2 3.2 0.00 0.00 0.00 76 1007.0
20260505081345 10 333 3.2 4.8 0.00 0.00 0.00 73 1007.2
20260505080841 9 338 1.6 1.6 0.00 0.00 0.00 73 1006.9
20260505080337 8 334 3.2 3.2 0.00 0.00 0.00 74 1006.9
20260505075833 9 336 3.2 3.2 0.00 0.00 0.00 75 1007.0
20260505075330 12 337 3.2 3.2 0.00 0.00 0.00 66 1006.9
20260505074827 12 286 3.2 3.2 0.00 0.00 0.00 58 1007.0
20260505074325 12 286 1.6 1.6 0.00 0.00 0.00 60 1007.2
20260505073822 12 286 1.6 1.6 0.00 0.00 0.00 60 1007.3
20260505073320 12 286 1.6 1.6 0.00 0.00 0.00 60 1007.0
20260505072817 12 286 3.2 3.2 0.00 0.00 0.00 60 1007.0
20260505072313 12 289 3.2 3.2 0.00 0.00 0.00 62 1006.7
20260505071809 12 291 3.2 3.2 0.00 0.00 0.00 63 1007.0
20260505071306 12 291 1.6 1.6 0.00 0.00 0.00 64 1006.8
20260505070804 12 291 1.6 1.6 0.00 0.00 0.00 65 1006.8
20260505070300 11 291 1.6 1.6 0.00 0.00 0.00 67 1006.7
20260505065755 10 291 1.6 1.6 0.00 0.00 0.00 70 1006.6
20260505065252 10 291 0.0 0.0 0.00 0.00 0.00 72 1006.6
20260505064749 10 291 1.6 1.6 0.00 0.00 0.00 74 1006.7
20260505064246 10 291 1.6 1.6 0.00 0.00 0.00 75 1006.4
20260505063744 11 289 1.6 1.6 0.00 0.00 0.00 71 1006.5
20260505063240 12 288 0.0 0.0 0.00 0.00 0.00 66 1006.5
20260505062736 12 288 0.0 0.0 0.00 0.00 0.00 64 1006.5
20260505062234 12 288 0.0 0.0 0.00 0.00 0.00 62 1006.5
20260505061731 12 288 0.0 0.0 0.00 0.00 0.00 62 1006.6
20260505061229 12 289 3.2 3.2 0.00 0.00 0.00 62 1006.5
20260505060726 13 296 1.6 1.6 0.00 0.00 0.00 62 1006.6
20260505060223 12 297 1.6 1.6 0.00 0.00 0.00 62 1006.6
20260505055718 12 297 1.6 1.6 0.00 0.00 0.00 62 1006.5
20260505055215 12 298 0.0 0.0 0.00 0.00 0.00 62 1006.3
20260505054712 13 298 1.6 1.6 0.00 0.00 0.00 61 1006.3
20260505054210 13 297 3.2 1.6 0.00 0.00 0.00 60 1006.4
20260505053708 13 297 1.6 1.6 0.00 0.00 0.00 60 1006.6
20260505053204 13 297 1.6 1.6 0.00 0.00 0.00 60 1006.3
20260505052701 12 286 3.2 3.2 0.00 0.00 0.00 62 1006.4
20260505052158 12 287 1.6 1.6 0.00 0.00 0.00 63 1006.3
20260505051655 13 288 3.2 1.6 0.00 0.00 0.00 62 1006.6
20260505051153 13 288 3.2 3.2 0.00 0.00 0.00 61 1006.3
20260505050651 13 293 3.2 3.2 0.00 0.00 0.00 60 1006.5
20260505050149 13 300 1.6 1.6 0.00 0.00 0.00 60 1006.3
20260505041619 13 350 1.6 1.6 0.00 0.00 0.00 59 1006.2
20260505041116 14 351 1.6 1.6 0.00 0.00 0.00 58 1006.4
20260505040613 14 351 0.0 1.6 0.00 0.00 0.00 57 1006.3
20260505040110 16 357 1.6 1.6 0.00 0.00 0.00 52 1006.3
20260505035606 17 291 0.0 0.0 0.00 0.00 0.00 45 1006.1
20260505035103 17 290 1.6 1.6 0.00 0.00 0.00 45 1006.1
20260505034559 17 290 1.6 1.6 0.00 0.00 0.00 44 1006.1
20260505034056 18 286 1.6 1.6 0.00 0.00 0.00 43 1005.7
20260505033553 18 285 3.2 3.2 0.00 0.00 0.00 42 1006.0
20260505033052 18 295 3.2 3.2 0.00 0.00 0.00 41 1006.0
20260505032549 18 292 3.2 3.2 0.00 0.00 0.00 41 1005.7
20260505032045 18 291 3.2 3.2 0.00 0.00 0.00 40 1005.6
20260505031543 18 287 3.2 3.2 0.00 0.00 0.00 40 1005.5
20260505031039 19 293 3.2 3.2 0.00 0.00 0.00 39 1005.5
20260505030536 19 288 1.6 1.6 0.00 0.00 0.00 38 1005.4
20260505030032 19 299 1.6 1.6 0.00 0.00 0.00 38 1005.4
20260505025528 20 303 3.2 3.2 0.00 0.00 0.00 37 1005.7
20260505025027 20 282 1.6 1.6 0.00 0.00 0.00 37 1005.4
20260505024524 20 303 1.6 1.6 0.00 0.00 0.00 36 1005.4
20260505024021 20 331 4.8 4.8 0.00 0.00 0.00 35 1005.1
20260505023518 20 315 3.2 4.8 0.00 0.00 0.00 35 1005.2
20260505023015 20 314 3.2 3.2 0.00 0.00 0.00 35 1005.3
20260505022513 20 303 3.2 3.2 0.00 0.00 0.00 34 1005.3
20260505022010 20 321 6.4 6.4 0.00 0.00 0.00 34 1005.0
20260505021506 20 321 3.2 3.2 0.00 0.00 0.00 34 1005.2
20260505021003 20 327 6.4 6.4 0.00 0.00 0.00 33 1005.2
20260505020457 20 318 8.0 9.7 0.00 0.00 0.00 31 1005.3
20260505015954 21 312 4.8 4.8 0.00 0.00 0.00 31 1005.2
20260505015452 21 327 9.7 9.7 0.00 0.00 0.00 30 1005.1
20260505014949 21 352 11.3 14.5 0.00 0.00 0.00 30 1005.1
20260505014445 21 327 6.4 6.4 0.00 0.00 0.00 32 1005.1
20260505013943 22 317 6.4 9.7 0.00 0.00 0.00 32 1005.2
20260505013440 22 347 8.0 9.7 0.00 0.00 0.00 30 1005.1
20260505012937 22 341 6.4 9.7 0.00 0.00 0.00 32 1005.1
20260505012435 22 323 9.7 11.3 0.00 0.00 0.00 28 1005.2
20260505011931 22 325 9.7 12.9 0.00 0.00 0.00 26 1005.2
20260505011427 23 330 8.0 9.7 0.00 0.00 0.00 29 1005.1
20260505010925 23 336 6.4 9.7 0.00 0.00 0.00 26 1005.3
20260505010420 23 333 11.3 12.9 0.00 0.00 0.00 26 1005.2
20260505005916 23 337 8.0 11.3 0.00 0.00 0.00 25 1005.2
20260505005413 23 325 8.0 9.7 0.00 0.00 0.00 30 1005.2
20260505004911 23 358 12.9 16.1 0.00 0.00 0.00 28 1005.3
20260505004407 23 327 11.3 12.9 0.00 0.00 0.00 28 1005.2
20260505003904 23 306 8.0 11.3 0.00 0.00 0.00 26 1005.3
20260505003401 23 302 14.5 17.7 0.00 0.00 0.00 24 1005.3
20260505002857 24 354 12.9 14.5 0.00 0.00 0.00 28 1005.2
20260505002354 24 296 6.4 6.4 0.00 0.00 0.00 26 1005.4
20260505001853 24 329 9.7 11.3 0.00 0.00 0.00 26 1005.3
20260505001349 24 285 12.9 16.1 0.00 0.00 0.00 26 1005.3
20260505000847 24 343 9.7 12.9 0.00 0.00 0.00 30 1005.1
20260505000344 24 335 11.3 12.9 0.00 0.00 0.00 26 1005.3
20260504235841 24 338 9.7 14.5 0.00 0.00 0.00 30 1005.2
20260504235338 24 352 9.7 12.9 0.00 0.00 0.00 30 1005.3
20260504234834 24 358 12.9 16.1 0.00 0.00 0.00 30 1005.2
20260504234332 24 356 14.5 17.7 0.00 0.00 0.00 27 1005.2
20260504233828 24 337 9.7 14.5 0.00 0.00 0.00 30 1005.2
20260504233324 24 340 16.1 22.5 0.00 0.00 0.00 29 1005.2
20260504232821 24 3 9.7 11.3 0.00 0.00 0.00 31 1005.3
20260504232318 24 349 14.5 17.7 0.00 0.00 0.00 30 1005.4
20260504231815 24 351 11.3 14.5 0.00 0.00 0.00 33 1005.4
20260504231312 24 333 11.3 16.1 0.00 0.00 0.00 32 1005.4
20260504230808 25 329 9.7 11.3 0.00 0.00 0.00 32 1005.4
20260504230306 25 339 11.3 12.9 0.00 0.00 0.00 29 1005.4
20260504225804 25 304 8.0 11.3 0.00 0.00 0.00 32 1005.2
20260504225300 25 329 9.7 11.3 0.00 0.00 0.00 31 1005.5
20260504224757 25 351 19.3 24.1 0.00 0.00 0.00 30 1005.5
20260504224255 24 339 14.5 16.1 0.00 0.00 0.00 31 1005.6
20260504223751 25 342 12.9 20.9 0.00 0.00 0.00 32 1005.6
20260504223247 24 337 17.7 20.9 0.00 0.00 0.00 31 1005.6
20260504222744 24 335 22.5 29.0 0.00 0.00 0.00 29 1005.7
20260504222240 24 343 14.5 16.1 0.00 0.00 0.00 31 1005.6
20260504221738 25 337 11.3 14.5 0.00 0.00 0.00 31 1005.4
20260504221235 25 347 14.5 17.7 0.00 0.00 0.00 31 1005.6
20260504220732 25 312 16.1 20.9 0.00 0.00 0.00 31 1005.7
20260504220229 24 346 19.3 20.9 0.00 0.00 0.00 27 1005.6
20260504215726 24 346 16.1 20.9 0.00 0.00 0.00 31 1005.9
20260504215223 24 321 14.5 20.9 0.00 0.00 0.00 30 1006.1
20260504214719 24 315 11.3 14.5 0.00 0.00 0.00 32 1005.9
20260504214215 25 309 19.3 25.7 0.00 0.00 0.00 31 1006.2
20260504213712 24 327 14.5 17.7 0.00 0.00 0.00 31 1006.1
20260504213208 25 322 22.5 27.4 0.00 0.00 0.00 29 1006.2
20260504212706 25 343 17.7 24.1 0.00 0.00 0.00 31 1006.2
20260504212202 25 355 24.1 27.4 0.00 0.00 0.00 27 1006.2
20260504211659 25 338 22.5 24.1 0.00 0.00 0.00 30 1006.2
20260504211155 25 331 14.5 14.5 0.00 0.00 0.00 31 1006.0
20260504210653 25 355 16.1 20.9 0.00 0.00 0.00 31 1006.2
20260504210150 25 350 16.1 17.7 0.00 0.00 0.00 29 1006.2
20260504205647 25 322 22.5 27.4 0.00 0.00 0.00 27 1006.3
20260504205144 25 316 14.5 20.9 0.00 0.00 0.00 27 1006.3
20260504204643 25 358 12.9 14.5 0.00 0.00 0.00 32 1006.4
20260504204141 25 16 12.9 20.9 0.00 0.00 0.00 29 1006.1
20260504203640 25 323 20.9 25.7 0.00 0.00 0.00 25 1006.2
20260504203137 25 320 16.1 17.7 0.00 0.00 0.00 28 1006.4
20260504202637 25 342 12.9 14.5 0.00 0.00 0.00 32 1006.2
20260504202134 25 348 20.9 29.0 0.00 0.00 0.00 29 1006.1
20260504201631 25 348 16.1 20.9 0.00 0.00 0.00 26 1006.1
20260504201129 25 339 19.3 22.5 0.00 0.00 0.00 29 1006.1
20260504200626 25 353 19.3 24.1 0.00 0.00 0.00 29 1006.2
20260504200122 25 358 17.7 20.9 0.00 0.00 0.00 30 1006.4
20260504195618 25 2 12.9 14.5 0.00 0.00 0.00 30 1006.2
20260504195115 25 48 3.2 4.8 0.00 0.00 0.00 33 1006.1
20260504194612 25 19 0.0 0.0 0.00 0.00 0.00 33 1006.1
20260504194107 25 65 3.2 3.2 0.00 0.00 0.00 37 1006.3
20260504193604 23 45 3.2 3.2 0.00 0.00 0.00 39 1006.5
20260504193102 23 356 1.6 1.6 0.00 0.00 0.00 37 1006.4
20260504192600 23 33 1.6 1.6 0.00 0.00 0.00 37 1006.6
20260504192058 23 104 0.0 1.6 0.00 0.00 0.00 38 1006.5
20260504191556 23 86 0.0 0.0 0.00 0.00 0.00 39 1006.7
20260504191052 22 78 3.2 3.2 0.00 0.00 0.00 38 1006.8
20260504190548 22 69 3.2 3.2 0.00 0.00 0.00 42 1006.9
20260504190044 22 73 1.6 1.6 0.00 0.00 0.00 42 1006.9
20260504185542 22 152 1.6 3.2 0.00 0.00 0.00 43 1006.8
20260504185038 22 93 3.2 3.2 0.00 0.00 0.00 44 1006.9
20260504184533 22 130 1.6 1.6 0.00 0.00 0.00 43 1007.0
20260504184029 21 158 1.6 1.6 0.00 0.00 0.00 42 1006.9
20260504183526 21 79 3.2 6.4 0.00 0.00 0.00 45 1007.2
20260504183025 21 68 3.2 3.2 0.00 0.00 0.00 44 1007.3
20260504182521 20 78 1.6 1.6 0.00 0.00 0.00 43 1007.4
20260504182018 21 73 3.2 1.6 0.00 0.00 0.00 45 1007.3
20260504181515 21 109 4.8 4.8 0.00 0.00 0.00 42 1007.3
20260504181014 20 101 1.6 1.6 0.00 0.00 0.00 44 1007.4
20260504180512 20 103 3.2 3.2 0.00 0.00 0.00 46 1007.3
20260504180011 19 143 1.6 1.6 0.00 0.00 0.00 46 1007.6
20260504175508 19 29 3.2 3.2 0.00 0.00 0.00 49 1007.4
20260504175005 19 97 6.4 6.4 0.00 0.00 0.00 48 1007.2
20260504174502 18 99 3.2 3.2 0.00 0.00 0.00 46 1007.5
20260504173959 19 100 3.2 3.2 0.00 0.00 0.00 47 1007.5
20260504173455 18 57 1.6 1.6 0.00 0.00 0.00 48 1007.7
20260504172953 18 104 0.0 0.0 0.00 0.00 0.00 47 1007.5
20260504172449 18 103 6.4 4.8 0.00 0.00 0.00 47 1007.8
20260504171946 17 86 1.6 1.6 0.00 0.00 0.00 48 1007.7
20260504171443 17 110 3.2 3.2 0.00 0.00 0.00 49 1007.7
20260504170940 17 97 3.2 3.2 0.00 0.00 0.00 50 1007.7
20260504170436 17 103 0.0 0.0 0.00 0.00 0.00 48 1007.9